Location: Newark
(41.0400°S, 62.7845°W)
Time: 23:03:08
(UTC+00:00)

Tiros 1 despin weight - All Passes

Search period start: 27 November 2021 00:00
Search period end: 07 December 2021 00:00
Orbit: 593 x 641 km, 48.2° (Epoch: 27 November)

Date Brightness Start Highest point End Pass type
(mag) Time Alt. Az. Time Alt. Az. Time Alt. Az.
27 Nov - 06:16:33 10° N 06:19:39 17° NE 06:22:46 10° E visible
27 Nov - 07:55:56 10° NW 08:00:41 81° NNE 08:05:26 10° ESE visible
27 Nov - 09:38:06 10° W 09:42:34 40° SSW 09:47:01 10° ESE daylight
27 Nov - 11:20:30 10° WSW 11:24:54 36° S 11:29:15 10° ESE daylight
27 Nov - 13:02:11 10° WSW 13:06:56 79° SSE 13:11:34 10° ENE daylight
27 Nov - 14:44:24 10° W 14:48:06 24° NW 14:51:45 10° N daylight
28 Nov - 06:31:19 10° NNW 06:35:30 32° NE 06:39:44 10° ESE visible
28 Nov - 08:12:10 10° WNW 08:16:53 65° SSW 08:21:37 10° ESE daylight
28 Nov - 09:54:40 10° WSW 09:59:01 35° S 10:03:22 10° ESE daylight
28 Nov - 11:36:47 10° WSW 11:41:20 44° SSE 11:45:49 10° E daylight
28 Nov - 13:18:25 10° WSW 13:23:04 63° NW 13:27:37 10° NE daylight
28 Nov - 15:02:08 10° WNW 15:03:53 12° NW 15:05:38 10° NNW daylight
29 Nov - 05:09:14 10° NNE 05:10:41 11° NE 05:12:09 10° ENE visible
29 Nov - 06:46:52 10° NW 06:51:29 59° NE 06:56:10 10° ESE visible
29 Nov - 08:28:38 10° W 08:33:12 46° SSW 08:37:47 10° ESE daylight
29 Nov - 10:11:09 10° WSW 10:15:30 34° S 10:19:49 10° ESE daylight
29 Nov - 11:52:58 10° WSW 11:57:40 61° SSE 12:02:17 10° ENE daylight
29 Nov - 13:34:49 10° WSW 13:39:04 34° NW 13:43:14 10° NNE daylight
30 Nov - 05:22:50 10° N 05:26:28 22° NE 05:30:08 10° E visible
30 Nov - 07:02:53 10° WNW 07:07:37 84° SSW 07:12:24 10° ESE visible
30 Nov - 08:45:12 10° WSW 08:49:37 37° S 08:54:02 10° ESE daylight
30 Nov - 10:27:30 10° WSW 10:31:58 39° S 10:36:23 10° E daylight
30 Nov - 12:09:08 10° WSW 12:13:53 86° NNW 12:18:33 10° ENE daylight
30 Nov - 13:51:42 10° W 13:54:55 18° NW 13:58:06 10° N daylight
01 Dec - 05:37:57 10° NNW 05:42:22 41° NE 05:46:50 10° ESE visible
01 Dec - 07:19:13 10° W 07:23:52 56° SSW 07:28:34 10° ESE visible
01 Dec - 09:01:45 10° WSW 09:06:05 34° S 09:10:25 10° ESE daylight
01 Dec - 10:43:44 10° WSW 10:48:21 49° SSE 10:52:55 10° E daylight
01 Dec - 12:25:24 10° WSW 12:29:58 50° NW 12:34:27 10° NE daylight
02 Dec - 04:14:49 10° NNE 04:17:28 15° NE 04:20:09 10° E visible
02 Dec - 05:53:43 10° NW 05:58:24 73° NNE 06:03:09 10° ESE visible
02 Dec - 07:35:44 10° W 07:40:14 41° SSW 07:44:45 10° ESE visible
02 Dec - 09:18:10 10° WSW 09:22:33 35° S 09:26:55 10° ESE daylight
02 Dec - 10:59:54 10° WSW 11:04:39 73° SSE 11:09:19 10° ENE daylight
02 Dec - 12:41:57 10° W 12:45:55 27° NW 12:49:49 10° NNE daylight
03 Dec - 04:29:16 10° NNW 04:33:17 28° NE 04:37:20 10° ESE visible
03 Dec - 06:09:52 10° WNW 06:14:34 71° SSW 06:19:20 10° ESE visible
03 Dec - 07:52:18 10° WSW 07:56:41 35° S 08:01:03 10° ESE visible
03 Dec - 09:34:28 10° WSW 09:39:00 42° SSE 09:43:29 10° E daylight
03 Dec - 11:16:05 10° WSW 11:20:49 71° NNW 11:25:27 10° NE daylight
03 Dec - 12:59:14 10° W 13:01:43 14° NW 13:04:10 10° NNW daylight
04 Dec - 04:44:41 10° NW 04:49:14 52° NE 04:53:50 10° ESE visible
04 Dec - 06:26:17 10° W 06:30:52 49° SSW 06:35:30 10° ESE visible
04 Dec - 08:08:48 10° WSW 08:13:09 34° S 08:17:30 10° ESE daylight
04 Dec - 09:50:40 10° WSW 09:55:21 57° SSE 10:00:00 10° E daylight
04 Dec - 11:32:26 10° WSW 11:36:50 39° NW 11:41:10 10° NNE daylight
05 Dec - 03:20:55 10° N 03:24:15 19° NE 03:27:37 10° E visible
05 Dec - 05:00:37 10° WNW 05:05:19 88° NNE 05:10:06 10° ESE visible
05 Dec - 06:42:50 10° W 06:47:16 38° S 06:51:43 10° ESE visible
05 Dec - 08:25:10 10° WSW 08:29:36 37° S 08:34:02 10° ESE daylight
05 Dec - 10:06:49 10° WSW 10:11:35 86° SSE 10:16:18 10° ENE daylight
05 Dec - 11:49:09 10° W 11:52:44 21° NW 11:56:15 10° N daylight
06 Dec - 03:35:52 10° NNW 03:40:06 36° NE 03:44:26 10° ESE visible
06 Dec - 05:16:53 10° WNW 05:21:32 60° SSW 05:26:16 10° ESE visible
06 Dec - 06:59:22 10° WSW 07:03:44 34° S 07:08:04 10° ESE visible
06 Dec - 08:41:25 10° WSW 08:46:01 47° SSE 08:50:35 10° E daylight
06 Dec - 10:23:03 10° WSW 10:27:43 56° NW 10:32:18 10° NE daylight
06 Dec - 12:07:28 10° WNW 12:08:28 11° NW 12:09:28 10° NW daylight
